Wind_Speed
22 24 25 26 29 30 32 36 38 35 36 39 35 36 33 38 33 32 37 34 27 25 26 24 24 24 29 29 28 30 32 32 28 30 31 29 23 34 39 45 42 47 44 40 35
21 23 25 26 26 27 28 30 35 41 41 37 35 35 33 34 34 31 29 30 25 24 24 24 23 23 24 27 28 31 31 31 31 31 31 29 33 29 33 34 33 33 32 41 42
19 20 23 26 28 28 28 29 31 31 42 46 43 36 36 34 35 30 33 30 30 27 28 26 28 28 27 28 29 32 31 30 31 32 34 33 35 36 35 36 36 24 33 33 34
20 19 19 23 26 29 32 33 33 32 32 35 38 43 44 41 41 39 35 33 32 32 33 32 31 32 33 32 33 34 32 33 33 33 35 37 36 37 39 40 34 35 34 31 30
24 23 23 22 24 27 30 34 37 38 37 37 37 38 38 41 43 39 39 34 35 34 36 36 35 35 32 32 34 35 36 36 35 35 38 38 41 41 42 43 38 34 34 31 38
30 29 27 27 28 28 31 33 34 37 38 38 38 39 38 39 40 39 38 39 38 38 38 38 38 37 34 34 36 33 35 34 35 36 38 37 39 42 44 44 43 40 46 38 39
32 32 32 32 33 32 34 34 35 37 39 38 38 38 38 41 38 37 38 38 37 37 36 35 35 33 33 36 35 34 35 34 36 34 35 35 38 41 39 41 42 42 40 43 41
32 32 33 35 34 34 36 37 37 37 38 39 38 38 40 41 40 40 34 38 39 40 38 37 36 31 35 38 36 35 39 41 37 36 35 34 41 41 44 41 43 44 44 45 53
32 31 32 32 33 33 36 38 39 39 39 40 40 38 39 39 39 37 38 41 43 47 47 45 39 37 34 35 37 39 39 38 42 43 40 36 41 40 41 43 45 45 47 47 50
32 32 33 35 35 35 36 38 38 40 40 39 38 35 34 30 38 42 39 40 42 45 42 44 42 38 39 38 41 41 41 40 42 42 41 39 42 42 41 42 44 45 46 49 49
34 34 34 35 35 35 37 38 38 39 40 42 38 37 36 35 31 47 44 44 45 48 45 39 37 35 37 39 41 40 38 42 42 41 40 40 41 43 43 44 45 47 45 46 50
33 31 32 31 31 31 31 32 33 36 38 41 41 39 39 38 37 41 47 50 49 45 44 41 37 36 38 40 40 39 38 39 37 37 38 38 41 44 48 47 48 48 48 50 50
32 30 30 29 28 26 26 26 29 33 36 38 37 39 43 46 45 44 41 48 47 43 43 44 40 37 37 40 42 40 36 40 39 38 37 39 43 48 52 51 55 58 54 51 47
33 32 32 31 29 26 24 23 24 27 30 35 38 42 42 44 47 48 47 43 44 51 48 45 48 46 45 50 42 44 45 40 39 41 42 45 46 53 63 59 53 52 52 51 49
37 35 33 31 32 31 29 27 26 25 24 29 37 40 44 44 51 51 51 52 50 48 48 55 55 50 52 54 52 51 47 46 43 43 45 53 57 58 58 57 55 54 54 52 51
42 40 39 35 35 35 36 34 33 32 27 25 33 35 38 40 48 54 55 56 57 57 56 55 55 54 50 58 53 52 52 52 51 53 52 61 60 62 65 63 62 62 60 57 55
45 45 45 43 43 42 41 41 41 41 33 30 35 37 35 39 43 47 51 56 60 64 65 64 62 55 55 63 63 61 61 58 56 58 64 65 68 65 68 67 68 68 65 63 61
48 50 49 50 48 46 46 45 46 44 43 43 46 44 40 42 46 46 47 49 56 61 65 70 69 65 62 66 69 66 65 62 57 58 60 69 70 72 72 72 69 69 68 66 64
50 51 52 52 52 51 51 51 51 50 53 52 53 51 49 49 50 49 49 49 59 61 63 65 64 63 62 63 66 63 60 54 53 56 59 71 75 71 67 70 70 70 68 70 67
52 53 55 56 56 56 57 56 53 58 59 59 59 58 60 58 58 58 53 52 61 65 67 71 71 66 62 63 62 62 61 60 57 58 63 79 76 70 69 68 66 66 68 68 69
57 56 58 58 59 59 58 54 58 65 63 64 65 66 68 66 65 65 57 60 65 67 66 69 74 72 71 70 66 63 63 63 66 65 68 77 74 73 69 69 70 70 71 73 73
59 59 64 63 64 65 62 61 65 68 66 68 70 71 73 73 73 70 66 66 71 68 67 73 70 74 75 74 70 68 64 64 68 72 76 83 78 75 76 76 73 76 79 81 83
63 63 67 65 65 64 61 63 66 67 71 72 74 75 77 77 75 72 70 70 74 72 69 70 70 75 74 77 73 70 70 71 73 74 78 85 83 77 79 81 78 77 77 78 80
61 62 67 67 66 66 65 66 69 72 73 73 74 75 76 74 74 71 70 70 71 71 71 71 71 73 75 75 76 77 77 75 75 76 78 84 83 80 83 85 86 86 87 87 87
63 65 66 66 66 66 66 61 63 65 67 69 68 67 68 68 66 65 69 73 70 70 70 71 72 75 78 76 76 75 77 77 73 76 80 85 89 88 89 92 91 92 96 97 96
62 60 60 58 54 56 57 56 49 45 43 36 38 42 40 43 42 45 53 59 66 71 72 72 74 79 82 81 75 78 81 77 77 83 85 86 87 90 93 95 93 97 96 99 100
42 46 49 49 45 39 39 36 35 36 36 35 38 33 33 35 35 36 39 43 51 60 68 71 75 78 83 83 85 84 84 86 84 85 89 92 94 96 98 98 99 98 98 103 106
Wind_Direction
223 224 226 230 231 228 230 232 230 223 227 234 230 235 239 242 245 246 244 250 254 257 247 235 235 234 231 236 240 241 238 241 244 245 246 239 234 221 229 243 248 258 265 269 265
224 225 226 226 227 228 229 227 228 231 231 229 239 235 239 243 248 242 245 241 246 247 246 236 235 237 239 242 245 244 243 245 247 249 250 256 256 238 250 256 261 269 274 257 265
227 230 227 225 226 227 230 230 231 235 234 238 242 236 236 237 243 237 242 243 247 252 252 246 241 245 248 251 247 246 247 249 249 253 254 251 256 259 259 255 262 257 272 268 266
233 234 236 236 234 233 235 235 238 239 237 238 240 240 244 244 247 250 252 254 249 256 247 250 247 246 250 251 249 248 248 252 254 254 256 259 260 260 256 260 256 250 252 266 251
240 241 242 242 246 245 241 240 241 244 243 242 241 242 243 246 252 252 254 252 252 250 245 247 250 253 251 249 245 251 251 253 255 258 259 260 260 258 261 260 254 255 250 265 257
241 246 249 251 249 250 250 247 246 246 245 243 243 243 242 246 248 250 251 254 252 250 250 248 250 251 251 249 247 249 251 252 255 259 262 262 264 260 258 257 258 248 235 247 248
244 247 250 253 256 255 251 249 248 245 244 244 243 244 243 245 246 246 252 253 251 254 253 250 246 245 247 246 245 247 252 252 253 256 262 263 264 263 261 262 261 258 253 252 242
248 250 253 256 254 253 251 249 249 248 246 245 245 247 246 247 245 238 251 253 244 246 248 247 245 242 246 243 250 254 254 253 253 256 258 261 262 263 265 258 256 257 251 251 253
250 251 253 256 255 256 254 251 249 247 246 244 248 245 249 248 238 227 246 247 246 246 246 244 254 254 250 246 251 255 259 258 257 258 259 260 262 264 266 268 267 259 254 250 249
253 255 258 261 258 257 256 253 249 246 245 245 245 245 246 250 234 224 236 236 240 251 251 252 258 257 256 258 258 262 260 258 257 257 261 262 262 263 263 264 265 264 266 260 255
254 256 260 261 260 260 257 252 247 241 243 242 243 243 239 244 243 228 239 246 245 251 260 260 259 258 257 255 257 258 258 257 257 261 257 257 260 263 263 260 257 258 259 262 264
256 258 259 258 259 259 255 250 247 242 245 244 240 242 241 238 241 246 242 246 249 251 255 258 261 259 258 257 259 259 260 257 258 258 257 255 258 259 259 258 258 256 254 252 255
256 256 252 255 255 253 251 251 249 246 245 242 245 244 243 238 239 242 249 255 249 247 252 256 256 257 260 261 257 262 261 257 256 255 254 252 255 256 256 253 250 250 256 262 270
248 249 248 252 248 248 253 251 250 249 248 249 248 246 244 245 246 244 236 249 252 258 255 256 254 255 261 259 262 262 260 261 261 258 254 251 251 251 249 252 260 265 269 274 274
242 243 245 248 250 249 254 253 251 251 249 250 249 251 251 247 249 250 246 243 249 254 254 255 260 259 258 261 260 256 261 260 262 262 261 259 250 252 258 261 264 265 266 267 269
243 244 246 247 253 255 257 256 256 255 249 250 255 255 254 252 251 251 250 249 248 250 250 251 255 256 257 256 253 261 268 266 261 263 265 262 262 259 259 260 260 261 260 262 264
245 248 249 253 258 260 259 259 259 257 257 257 259 258 262 262 258 255 253 252 252 257 258 256 255 252 259 264 262 265 266 263 264 266 264 264 264 260 261 260 259 260 261 262 264
249 250 252 256 259 262 260 259 261 263 262 257 261 260 261 264 263 260 259 259 255 255 255 259 256 254 259 262 262 261 266 269 266 260 260 263 261 262 260 261 264 265 267 266 265
251 252 255 259 261 263 263 263 264 266 263 262 263 263 263 263 266 266 264 262 261 259 256 257 258 255 257 259 261 263 263 260 258 260 261 261 259 260 262 266 270 273 272 269 266
255 256 258 260 262 264 266 265 270 270 267 267 266 269 269 266 269 268 269 267 261 259 258 258 257 255 252 254 257 259 256 258 260 259 259 263 265 263 266 265 266 269 271 272 272
258 260 261 262 264 266 268 271 270 271 270 271 272 271 271 271 269 269 270 266 261 261 259 260 260 256 256 258 258 256 259 260 262 262 259 261 263 265 267 270 271 271 270 269 267
261 262 264 265 268 269 272 272 272 273 273 272 272 272 271 270 270 270 268 262 265 262 261 260 261 260 256 255 257 259 259 261 261 261 259 261 262 265 270 270 268 266 265 266 267
262 264 267 268 270 272 274 273 274 274 272 271 271 270 269 270 270 269 266 262 260 262 259 259 261 261 259 257 255 256 256 255 258 261 264 268 270 268 266 264 262 263 264 265 266
263 265 269 272 272 273 273 275 274 273 274 274 273 271 270 269 268 266 264 261 259 258 257 258 259 260 262 260 258 257 254 256 260 264 266 268 269 268 267 267 267 267 266 265 264
263 267 270 272 273 274 273 274 275 275 275 276 275 272 270 268 267 264 260 257 255 254 253 254 255 258 261 262 261 259 258 257 258 261 262 264 267 268 269 269 269 271 272 271 269
266 269 270 271 273 274 274 273 273 273 277 279 279 275 274 270 265 262 258 256 254 252 253 254 256 255 256 258 261 264 263 261 260 260 261 264 268 270 271 272 273 272 273 273 273
268 270 271 274 273 273 272 269 263 266 273 277 279 282 274 270 269 266 261 259 257 255 253 253 254 255 257 260 263 264 266 267 267 267 268 268 269 271 273 273 273 273 272 273 273
Height
10860 10862 10865 10868 10871 10874 10877 10881 10884 10887 10890 10893 10896 10898 10901 10904 10907 10910 10910 10913 10913 10915 10916 10918 10920 10921 10923 10924 10926 10928 10930 10930 10934 10934 10936 10937 10943 10944 10941 10936 10943 10944 10941 10943 10942
10857 10859 10861 10864 10867 10869 10872 10875 10879 10882 10885 10888 10890 10893 10896 10900 10902 10903 10906 10906 10908 10910 10912 10914 10915 10917 10919 10921 10922 10922 10925 10927 10927 10929 10931 10931 10927 10939 10935 10935 10935 10933 10934 10935 10936
10853 10855 10857 10860 10863 10865 10868 10871 10873 10876 10878 10882 10884 10887 10890 10893 10894 10898 10899 10902 10903 10905 10907 10909 10911 10913 10915 10918 10918 10917 10921 10922 10922 10922 10922 10924 10923 10929 10926 10926 10925 10933 10930 10930 10930
10848 10851 10853 10855 10858 10861 10863 10866 10868 10870 10872 10875 10877 10881 10884 10885 10887 10889 10892 10895 10897 10899 10901 10903 10904 10907 10909 10912 10913 10913 10917 10915 10915 10916 10916 10915 10919 10920 10917 10918 10923 10921 10919 10921 10917
10844 10846 10848 10850 10852 10855 10857 10859 10861 10864 10866 10868 10871 10873 10876 10877 10878 10882 10884 10887 10890 10893 10895 10896 10897 10899 10902 10905 10907 10907 10911 10910 10910 10908 10908 10910 10910 10911 10910 10910 10916 10915 10915 10912 10910
10839 10841 10843 10845 10846 10848 10850 10852 10854 10856 10858 10861 10864 10866 10869 10869 10872 10873 10876 10879 10882 10885 10887 10888 10890 10892 10894 10897 10899 10901 10902 10903 10903 10903 10902 10903 10902 10903 10902 10904 10904 10911 10913 10909 10903
10833 10835 10837 10838 10839 10841 10842 10844 10846 10848 10850 10853 10855 10858 10861 10860 10865 10867 10870 10872 10874 10876 10879 10881 10883 10884 10886 10889 10891 10893 10894 10896 10895 10897 10896 10897 10895 10893 10898 10896 10896 10899 10902 10899 10898
10825 10827 10829 10830 10831 10832 10833 10836 10838 10840 10842 10845 10847 10850 10852 10854 10858 10860 10863 10866 10868 10869 10871 10873 10876 10877 10879 10882 10884 10886 10885 10886 10889 10890 10890 10891 10885 10886 10885 10893 10892 10892 10895 10894 10888
10818 10820 10821 10822 10823 10823 10824 10826 10828 10831 10834 10836 10839 10841 10842 10846 10848 10852 10855 10857 10859 10861 10862 10864 10868 10871 10873 10875 10875 10875 10879 10880 10880 10882 10883 10885 10881 10881 10880 10878 10878 10881 10884 10886 10886
10810 10811 10812 10813 10815 10816 10816 10817 10819 10822 10825 10828 10830 10834 10834 10836 10840 10844 10846 10848 10850 10852 10854 10858 10860 10862 10864 10865 10865 10867 10870 10872 10870 10872 10876 10876 10874 10874 10874 10873 10871 10868 10866 10869 10873
10802 10803 10804 10804 10806 10807 10807 10808 10810 10812 10816 10819 10823 10826 10826 10829 10834 10836 10838 10839 10841 10843 10846 10850 10851 10854 10855 10856 10856 10857 10860 10858 10861 10864 10868 10867 10866 10864 10864 10863 10862 10859 10859 10857 10858
10793 10794 10796 10797 10797 10798 10799 10800 10802 10805 10808 10811 10814 10817 10819 10822 10824 10827 10829 10831 10833 10836 10838 10840 10842 10844 10846 10846 10846 10848 10851 10849 10852 10855 10858 10861 10859 10855 10850 10849 10848 10847 10846 10841 10841
10785 10787 10789 10790 10790 10791 10792 10793 10794 10797 10799 10803 10806 10809 10810 10814 10815 10817 10821 10823 10824 10826 10828 10828 10833 10835 10836 10836 10836 10838 10841 10840 10843 10845 10849 10850 10847 10842 10834 10833 10827 10819 10831 10840 10852
10778 10779 10782 10783 10784 10785 10786 10787 10788 10790 10792 10795 10797 10796 10800 10803 10805 10805 10810 10813 10814 10816 10818 10819 10821 10826 10827 10823 10829 10831 10827 10831 10834 10836 10835 10836 10834 10820 10803 10814 10829 10833 10834 10838 10842
10769 10771 10773 10774 10776 10777 10779 10780 10782 10783 10786 10786 10785 10788 10789 10795 10791 10795 10797 10801 10804 10806 10807 10803 10808 10815 10816 10813 10816 10815 10818 10822 10824 10823 10823 10817 10810 10807 10811 10819 10821 10825 10825 10826 10826
10760 10762 10765 10766 10768 10769 10770 10772 10774 10775 10778 10781 10775 10778 10780 10784 10782 10783 10787 10790 10792 10793 10791 10793 10795 10800 10805 10801 10801 10804 10807 10810 10812 10809 10809 10793 10799 10800 10799 10805 10807 10810 10814 10817 10817
10750 10753 10755 10757 10758 10760 10761 10763 10763 10763 10771 10774 10767 10769 10771 10772 10772 10772 10775 10778 10779 10776 10776 10777 10777 10789 10793 10784 10787 10790 10791 10795 10800 10798 10783 10784 10777 10785 10780 10784 10789 10794 10801 10807 10811
10739 10741 10744 10746 10747 10749 10751 10752 10750 10758 10759 10758 10754 10757 10761 10760 10758 10760 10764 10767 10763 10761 10764 10759 10767 10777 10776 10762 10767 10776 10778 10783 10783 10779 10772 10752 10754 10757 10769 10773 10780 10782 10786 10792 10798
10729 10731 10733 10734 10735 10737 10739 10739 10741 10744 10741 10743 10742 10744 10746 10747 10746 10748 10751 10756 10748 10748 10747 10743 10749 10759 10759 10748 10748 10765 10766 10765 10766 10763 10758 10735 10733 10745 10758 10761 10765 10768 10770 10772 10777
10718 10720 10720 10721 10722 10724 10725 10726 10733 10724 10725 10727 10729 10730 10727 10731 10733 10732 10740 10742 10730 10729 10731 10727 10729 10738 10741 10737 10739 10743 10746 10747 10751 10751 10744 10693 10724 10743 10747 10751 10755 10755 10752 10752 10754
10706 10708 10706 10707 10708 10709 10710 10719 10715 10704 10710 10710 10709 10711 10706 10713 10712 10716 10729 10719 10711 10711 10717 10711 10709 10717 10718 10719 10724 10728 10727 10732 10728 10731 10726 10697 10708 10718 10731 10736 10738 10736 10734 10732 10733
10693 10696 10690 10695 10694 10695 10699 10700 10695 10689 10694 10691 10690 10689 10687 10688 10691 10700 10706 10701 10690 10695 10700 10690 10693 10690 10697 10701 10701 10710 10717 10711 10708 10706 10701 10684 10701 10715 10716 10715 10716 10711 10709 10706 10705
10679 10682 10673 10679 10678 10680 10682 10678 10676 10675 10671 10670 10669 10667 10664 10666 10669 10676 10679 10680 10672 10674 10680 10676 10676 10667 10676 10679 10688 10690 10691 10691 10691 10692 10686 10672 10680 10696 10687 10681 10687 10689 10691 10691 10688
10663 10667 10659 10664 10662 10661 10663 10661 10658 10653 10651 10648 10645 10643 10641 10644 10647 10652 10653 10654 10654 10656 10658 10658 10657 10651 10653 10658 10661 10664 10671 10677 10680 10675 10670 10655 10655 10667 10662 10663 10664 10665 10664 10666 10665
10649 10648 10650 10646 10644 10644 10641 10644 10636 10634 10630 10627 10623 10621 10619 10620 10625 10628 10628 10628 10633 10635 10637 10638 10639 10634 10629 10636 10636 10646 10651 10654 10659 10653 10646 10641 10639 10640 10641 10638 10644 10639 10631 10626 10632
10635 10634 10636 10630 10628 10626 10623 10624 10622 10615 10613 10611 10606 10605 10606 10604 10604 10606 10605 10608 10611 10616 10617 10620 10621 10615 10609 10608 10618 10621 10621 10634 10637 10629 10629 10625 10622 10618 10616 10612 10620 10611 10610 10603 10600
10622 10621 10619 10616 10612 10611 10608 10609 10609 10605 10602 10602 10597 10599 10594 10591 10592 10593 10592 10593 10595 10596 10598 10600 10600 10598 10593 10596 10595 10599 10601 10602 10608 10609 10605 10601 10598 10595 10590 10588 10587 10587 10584 10576 10570